Date String (YYYY-MM-DD hh:mm:ss) UTC,Instrument flags,Ambient pressure (hPa),Sample flow (lpm),Bypass flow (lpm),Sample temperature (°C),Ambient temperature (°C),ASC tube jacket temperature (°C),LED temperature (°C),Box temperature (°C),Sample RH (%),Span deviation,Mass concentration (μg/m³),Mass concentration (μg/m³),Mass concentration (μg/m³)
DateTimeUTC,F1_M11,P_M11,Q1_M11,Q2_M11,T1_M11,T2_M11,T3_M11,T4_M11,T5_M11,U1_M11,ZSPAN_M11,X0_M11,X2_M11,X1_M11
2022-08-27 00:00:00,,0827.3,5.01,0.00,29.7,26.5,00.0,38.3,31.4,25.1,0000.0,0006.82,0003.89,0003.47
2022-08-27 00:01:00,,0826.8,5.00,0.00,29.6,26.9,00.0,38.3,31.3,25.2,0000.0,0006.84,0003.90,0003.47
2022-08-27 00:02:00,,0826.9,5.01,0.00,29.5,27.3,00.0,38.3,31.3,25.3,0000.0,0006.80,0003.87,0003.46
2022-08-27 00:03:00,,0826.9,5.00,0.00,29.5,27.6,00.0,38.3,31.3,25.6,0000.0,0006.73,0003.86,0003.44
2022-08-27 00:04:00,,0826.9,5.01,0.00,29.5,27.8,00.0,38.3,31.4,25.6,0000.0,0006.96,0003.83,0003.42
2022-08-27 00:05:00,,0827.0,5.01,0.00,29.6,28.1,00.0,38.3,31.4,25.7,0000.0,0006.56,0003.79,0003.38
2022-08-27 00:06:00,,0827.0,4.99,0.00,29.6,28.2,00.0,38.3,31.5,25.8,0000.0,0006.57,0003.74,0003.35
2022-08-27 00:07:00,,0827.3,4.99,0.00,29.6,28.4,00.0,38.3,31.5,25.8,0000.0,0007.90,0003.72,0003.32
2022-08-27 00:08:00,,0827.2,5.00,0.00,29.6,28.5,00.0,38.3,31.5,25.6,0000.0,0008.20,0003.67,0003.29
2022-08-27 00:09:00,,0827.2,5.00,0.00,29.7,28.6,00.0,38.3,31.6,25.6,0000.0,0008.28,0003.67,0003.28
2022-08-27 00:10:00,,0827.2,4.99,0.00,29.7,28.7,00.0,38.4,31.6,25.6,0000.0,0008.36,0003.66,0003.25
2022-08-27 00:11:00,,0827.2,5.01,0.00,29.7,28.8,00.0,38.4,31.7,25.6,0000.0,0008.55,0003.65,0003.24
2022-08-27 00:12:00,,0827.2,5.00,0.00,29.8,28.9,00.0,38.4,31.7,25.7,0000.0,0009.40,0003.64,0003.22
2022-08-27 00:13:00,,0827.3,5.00,0.00,29.8,28.9,00.0,38.4,31.7,25.8,0000.0,0009.55,0003.62,0003.21
2022-08-27 00:14:00,,0827.3,5.00,0.00,29.8,29.0,00.0,38.5,31.8,25.8,0000.0,0009.64,0003.62,0003.22
2022-08-27 00:15:00,,0827.3,5.00,0.00,29.9,29.1,00.0,38.5,31.9,25.2,0000.0,0009.98,0003.64,0003.22
2022-08-27 00:16:00,,0827.3,5.01,0.00,29.9,29.1,00.0,38.5,31.9,25.2,0000.0,0010.06,0003.65,0003.22
2022-08-27 00:17:00,,0827.4,5.00,0.00,30.0,29.2,00.0,38.6,31.9,24.9,0000.0,0010.21,0003.69,0003.24
2022-08-27 00:18:00,,0827.4,4.99,0.00,30.0,28.8,00.0,38.6,32.0,24.8,0000.0,0009.69,0003.69,0003.25
2022-08-27 00:19:00,,0827.4,5.01,0.00,30.0,27.3,00.0,38.6,31.8,24.9,0000.0,0009.22,0003.68,0003.26
2022-08-27 00:20:00,,0827.4,5.00,0.00,29.9,26.3,00.0,38.5,31.7,25.2,0000.0,0009.19,0003.70,0003.27
2022-08-27 00:21:00,,0827.4,5.00,0.00,29.8,26.4,00.0,38.5,31.6,25.7,0000.0,0009.74,0003.72,0003.28
2022-08-27 00:22:00,,0827.4,5.01,0.00,29.7,26.7,00.0,38.4,31.4,26.0,0000.0,0009.79,0003.73,0003.27
2022-08-27 00:23:00,,0827.4,5.00,0.00,29.7,27.1,00.0,38.4,31.4,26.2,0000.0,0009.00,0003.71,0003.25
2022-08-27 00:24:00,,0827.4,5.00,0.00,29.7,27.5,00.0,38.4,31.4,26.0,0000.0,0009.05,0003.74,0003.23
2022-08-27 00:25:00,,0827.4,5.00,0.00,29.7,27.8,00.0,38.4,31.5,25.6,0000.0,0009.24,0003.74,0003.20
2022-08-27 00:26:00,,0827.4,4.99,0.00,29.7,28.0,00.0,38.4,31.5,25.8,0000.0,0008.96,0003.77,0003.18
2022-08-27 00:27:00,,0827.4,5.00,0.00,29.7,28.2,00.0,38.4,31.5,26.1,0000.0,0009.12,0003.79,0003.16
2022-08-27 00:28:00,,0827.4,5.00,0.00,29.7,28.4,00.0,38.4,31.6,26.5,0000.0,0009.98,0003.81,0003.12
2022-08-27 00:29:00,,0827.4,5.00,0.00,29.7,28.5,00.0,38.4,31.6,26.5,0000.0,0010.53,0003.84,0003.07
2022-08-27 00:30:00,,0827.4,5.00,0.00,29.7,28.6,00.0,38.4,31.7,26.6,0000.0,0012.35,0003.91,0003.02
2022-08-27 00:31:00,,0827.4,5.00,0.00,29.8,28.7,00.0,38.5,31.7,26.6,0000.0,0013.30,0003.97,0002.96
2022-08-27 00:32:00,,0827.5,5.01,0.00,29.8,28.8,00.0,38.5,31.7,26.5,0000.0,0013.96,0004.01,0002.93
2022-08-27 00:33:00,,0827.5,4.99,0.00,29.8,28.9,00.0,38.5,31.8,26.3,0000.0,0013.95,0004.05,0002.89
2022-08-27 00:34:00,,0827.5,5.00,0.00,29.9,29.0,00.0,38.5,31.8,26.1,0000.0,0014.20,0004.13,0002.87
2022-08-27 00:35:00,,0827.5,4.99,0.00,29.9,29.0,00.0,38.6,31.9,26.0,0000.0,0014.48,0004.15,0002.85
2022-08-27 00:36:00,,0827.5,5.02,0.00,29.9,29.1,00.0,38.6,31.9,26.0,0000.0,0015.18,0004.20,0002.85
2022-08-27 00:37:00,,0827.5,5.00,0.00,30.0,29.2,00.0,38.6,31.9,25.9,0000.0,0015.46,0004.20,0002.85
2022-08-27 00:38:00,,0827.5,5.00,0.00,30.0,29.2,00.0,38.7,32.0,25.9,0000.0,0016.27,0004.17,0002.83
2022-08-27 00:39:00,,0827.5,5.00,0.00,30.1,29.3,00.0,38.7,32.0,25.6,0000.0,0015.77,0004.12,0002.83
2022-08-27 00:40:00,,0827.5,5.00,0.00,30.1,29.3,00.0,38.7,32.0,25.5,0000.0,0015.37,0004.13,0002.81
2022-08-27 00:41:00,,0827.5,5.00,0.00,30.1,29.3,00.0,38.8,32.1,25.5,0000.0,0013.96,0004.12,0002.81
2022-08-27 00:42:00,,0827.6,4.99,0.00,30.2,28.9,00.0,38.8,32.1,25.5,0000.0,0014.00,0004.10,0002.80
2022-08-27 00:43:00,,0827.5,4.99,0.00,30.1,27.5,00.0,38.8,32.0,25.4,0000.0,0013.94,0004.09,0002.79
2022-08-27 00:44:00,,0827.5,5.00,0.00,30.1,27.1,00.0,38.7,31.9,25.4,0000.0,0014.37,0004.04,0002.78
2022-08-27 00:45:00,,0827.4,5.00,0.00,30.0,27.3,00.0,38.7,31.8,25.5,0000.0,0014.72,0003.99,0002.80
2022-08-27 00:46:00,,0827.5,5.01,0.00,30.0,27.6,00.0,38.7,31.7,25.7,0000.0,0014.93,0004.01,0002.83
2022-08-27 00:47:00,,0827.4,4.99,0.00,30.0,27.9,00.0,38.7,31.7,25.8,0000.0,0014.39,0003.98,0002.80
2022-08-27 00:48:00,,0827.4,5.01,0.00,30.0,28.2,00.0,38.7,31.8,25.6,0000.0,0014.01,0003.96,0002.78
2022-08-27 00:49:00,,0827.4,4.99,0.00,30.0,28.4,00.0,38.7,31.8,25.7,0000.0,0013.97,0003.98,0002.76
2022-08-27 00:50:00,,0827.4,5.01,0.00,30.0,28.6,00.0,38.7,31.9,25.8,0000.0,0014.01,0004.04,0002.74
2022-08-27 00:51:00,,0827.4,5.00,0.00,30.0,28.7,00.0,38.7,31.9,25.8,0000.0,0014.37,0004.08,0002.76
2022-08-27 00:52:00,,0827.4,5.00,0.00,30.0,28.9,00.0,38.7,31.9,25.9,0000.0,0015.71,0004.10,0002.73
2022-08-27 00:53:00,,0827.4,5.01,0.00,30.0,29.0,00.0,38.7,31.9,25.9,0000.0,0016.03,0004.07,0002.70
2022-08-27 00:54:00,,0827.5,5.00,0.00,30.1,29.1,00.0,38.8,32.0,25.9,0000.0,0015.94,0004.11,0002.68
2022-08-27 00:55:00,,0827.6,5.00,0.00,30.1,29.1,00.0,38.8,32.0,25.9,0000.0,0016.94,0004.15,0002.66
2022-08-27 00:56:00,,0827.5,4.99,0.00,30.1,28.5,00.0,38.8,32.0,26.0,0000.0,0016.68,0004.19,0002.61
2022-08-27 00:57:00,,0827.5,5.01,0.00,30.1,27.1,00.0,38.7,31.8,26.1,0000.0,0016.45,0004.24,0002.58
2022-08-27 00:58:00,,0827.5,5.01,0.00,30.0,26.4,00.0,38.7,31.7,25.9,0000.0,0016.42,0004.30,0002.59
2022-08-27 00:59:00,,0827.5,4.99,0.00,29.9,26.4,00.0,38.6,31.6,26.0,0000.0,0016.80,0004.38,0002.61
